sat.trackr.live / text

‹ back to catalog

2025-292F

NORAD 66998 · 2025-292F

PAYLOAD ACTIVE UNKNOWN

§ Identity

Operator
Country
PRC
Launch date
2025-12-10
Launch site
JSC
Launch vehicle
Mass (kg)
RCS (m²)

External: N2YO · Heavens-Above · Gunter

§ Orbital elements

Epoch: 2026-05-25T03:24:53.905248Z

Period
95.58 min
Inclination
97.6358°
Eccentricity
0.0016518
Mean motion
15.06526956 rev/d
Perigee alt
535.4 km
Apogee alt
558.3 km
Semi-major
6,925.0 km
B*
3.0225e-4
RAAN
221.2639°
Arg perigee
84.3274°
Mean anomaly
275.9836°
Rev number
2,498

§ Raw data

2025-292F1 66998U 25292F   26145.14229057  .00004419  00000+0  30225-3 0  99982 66998  97.6358 221.2639 0016518  84.3274 275.9836 15.06526956 24980

JSON: /api/v1/satellites/66998 · /tle

For live sub-satellite position, see the globe view (requires WebGL).

§ Visibility from observer

Set your observer location to see the next 7 days of passes ≥ 10°. The values pass through the URL so the page stays shareable.

No JS? Fill the form by hand. The geolocation button needs JavaScript.